This is the latest recevied weather packets stored in our database for station/object KT2UU-13. If no packets are shown the sender has not sent any weather packets the latest 10 day(s).
| Time | Temp. | Humidity | Pressure | Rain* | Wind** | Luminosity | Snow |
|---|---|---|---|---|---|---|---|
| 1778152470 | 16.67° C | 99% | 1012 hPa | 22.86 mm | - | - | - |
| 1778152166 | 16.67° C | 99% | 1012.4 hPa | 10.67 mm | - | - | - |
| 1778151862 | 16.67° C | 99% | 1013 hPa | 3.05 mm | - | - | - |
| 1778151559 | 16.67° C | 99% | 1012.5 hPa | 1.27 mm | - | - | - |
| 1778151256 | 16.67° C | 99% | 1012 hPa | 0 mm | - | - | - |
| 1778150953 | 16.67° C | 99% | 1011.5 hPa | 0 mm | - | - | - |
| 1778150649 | 16.67° C | 99% | 1011.3 hPa | 0 mm | - | - | - |
| 1778150345 | 16.67° C | 99% | 1011.2 hPa | 0 mm | - | - | - |
| 1778150042 | 16.67° C | 99% | 1011.4 hPa | 0 mm | - | - | - |
| 1778149738 | 16.67° C | 99% | 1011.5 hPa | 0 mm | - | - | - |
| 1778149434 | 16.67° C | 99% | 1011.5 hPa | 0 mm | - | - | - |
| 1778149130 | 16.67° C | 99% | 1011.6 hPa | 0 mm | - | - | - |
| 1778148825 | 16.67° C | 99% | 1011.8 hPa | 0 mm | - | - | - |
| 1778148523 | 16.67° C | 99% | 1012 hPa | 1.78 mm | - | - | - |
| 1778148221 | 16.67° C | 99% | 1011.5 hPa | 3.05 mm | - | - | - |
| 1778147918 | 16.67° C | 99% | 1011.8 hPa | 16.76 mm | - | - | - |
| 1778147615 | 17.22° C | 99% | 1012.2 hPa | 49.28 mm | - | - | - |
| 1778147312 | 17.22° C | 99% | 1012.7 hPa | 39.62 mm | - | - | - |
| 1778147008 | 17.22° C | 99% | 1013.5 hPa | 7.11 mm | - | - | - |
| 1778146706 | 17.22° C | 99% | 1012.8 hPa | 0 mm | - | - | - |
| 1778146404 | 17.22° C | 99% | 1012 hPa | 1.78 mm | - | - | - |
| 1778146102 | 17.22° C | 99% | 1011 hPa | 4.83 mm | - | - | - |
| 1778145798 | 17.22° C | 99% | 1011 hPa | 4.83 mm | - | - | - |
| 1778145494 | 17.22° C | 99% | 1011.3 hPa | 6.1 mm | - | - | - |
| 1778145191 | 17.22° C | 99% | 1011.6 hPa | 4.83 mm | - | - | - |
* Rain latest hour (hover to see other rain measurements)
** Current wind speed in m/s (hover to see current wind gust speed)